Regional Weather Roundup
Issued by NWS

Home | Current Version | Previous Version | Graphics & Text | Print | Product List | Glossary On
Versions: 1 2 3 4 5 6 7 8 9 10 11 12 13 14 15 16 17 18 19 20 21 22 23 24 25 26 27 28 29 30 31 32 33 34 35 36 37 38 39 40 41 42 43 44 45 46 47 48 49 50
000
ASUS43 KIND 211209
RWRIN

WEATHER ROUNDUP FOR INDIANA
NATIONAL WEATHER SERVICE INDIANAPOLIS IN
700 AM EST TUE NOV 21 2017

NOTE: "FAIR" INDICATES FEW OR NO CLOUDS BELOW 12,000 FEET WITH NO
SIGNIFICANT WEATHER AND/OR OBSTRUCTIONS TO VISIBILITY.

* - STATION DOES NOT REPORT WEATHER SUCH AS PRECIPITATION OR FOG.

+ - STATION NOT QUALITY CONTROLLED BY THE NATIONAL WEATHER SERVICE.
    USE DATA WITH CAUTION...ESPECIALLY DEWPOINT AND RELATIVE
    HUMIDITY OBSERVATIONS.

INZ001>003-010>013-019-020-211300-
NORTHWEST INDIANA

CITY           SKY/WX    TMP DP  RH WIND       PRES   REMARKS
GARY /AIRPORT/ PTCLDY    43  30  61 SW12G25   29.70F
KNOX *+        CLEAR     41  30  65 SW14G23   29.74F
LA PORTE +     CLEAR     38  30  72 SW15      29.73F WCI  30
6HR MIN TEMP:  38; 6HR MAX TEMP:  41;

MICHIGAN CITY+ CLEAR     39  30  70 SW15G22   29.72F WCI  31
MONTICELLO +   CLEAR     39  28  65 SW15      29.78S WCI  30
6HR MIN TEMP:  39; 6HR MAX TEMP:  41;

RENSSELAER +   CLEAR     41  27  56 SW17G24   29.76F
VALPARAISO     CLEAR     39  30  70 SW13      29.73F WCI  31
6HR MIN TEMP:  39; 6HR MAX TEMP:  43;


$$

LMZ046-743>745-211300-
SOUTHERN LAKE MICHIGAN

STATION/POSITION TIME  TEMP    WIND        PRES    WAVE
                       AIR SEA DIR/SP/G            HT
                 (UTC) (F)     (DEG/KT/KT) (MB)    (FT)
BURNS HARBOR     1154   43     210/ 17/ 26 1005.8F
MICHIGAN CITY    1140   43     190/ 17/ 18   N/A

$$

INZ004-005-014>016-021>024-211300-
NORTH CENTRAL INDIANA

CITY           SKY/WX    TMP DP  RH WIND       PRES   REMARKS
ELKHART        CLOUDY    41  28  60 SW14G20   29.73
GOSHEN         CLOUDY    39  27  62 SW13      29.74R WCI  31
6HR MIN TEMP:  39; 6HR MAX TEMP:  41;

LOGANSPORT +   PTCLDY    37  30  75 SW15      29.81S WCI  28
PERU/GRISSOM   CLOUDY    39  29  65 SW15      29.79S WCI  31
6HR MIN TEMP:  38; 6HR MAX TEMP:  41;

ROCHESTER +    PTCLDY    41  30  65 SW12      29.78S
SOUTH BEND     CLEAR     39  30  70 SW18G25   29.72F WCI  30
6HR MIN TEMP:  39; 6HR MAX TEMP:  42;

WARSAW +       CLOUDY    41  28  60 SW9       29.76S

$$

INZ006>009-017-018-025>027-211300-
NORTHEAST INDIANA

CITY           SKY/WX    TMP DP  RH WIND       PRES   REMARKS
AUBURN +       CLOUDY    41  27  56 SW12G20   29.77R
FORT WAYNE     CLOUDY    40  29  64 SW15      29.80R WCI  32
6HR MIN TEMP:  40; 6HR MAX TEMP:  41;

HUNTINGTON +   CLOUDY    39  26  59 SW14      29.80R WCI  31
6HR MIN TEMP:  38; 6HR MAX TEMP:  39;

KENDALLVILLE + CLOUDY    40  29  64 SW14      29.75S WCI  32

$$

INZ028-029-035-036-043>045-051>053-211300-
WEST CENTRAL INDIANA

CITY           SKY/WX    TMP DP  RH WIND       PRES   REMARKS
CRAWFORDSVL +  PTCLDY    36  28  72 S14       29.81F WCI  27
6HR MIN TEMP:  36; 6HR MAX TEMP:  38;

GREENCASTLE +  CLOUDY    37  27  65 SW9       29.87S WCI  31
LAFAYETTE      CLEAR     39  28  64 SW6       29.82R WCI  35
6HR MIN TEMP:  39; 6HR MAX TEMP:  42;

TERRE HAUTE    CLOUDY    39  26  59 S13       29.88R WCI  31
6HR MIN TEMP:  39; 6HR MAX TEMP:  41;


$$

INZ030>032-037>040-046>048-054>057-064-065-211300-
CENTRAL INDIANA

CITY           SKY/WX    TMP DP  RH WIND       PRES   REMARKS
CP ATTERBURY + MOCLDY    41  27  56 SW9       29.91S
COLUMBUS       PTCLDY    39  23  52 S16       29.92  WCI  30
FISHERS *+     CLOUDY    41  30  65 SW14G22   29.87
FRANKFORT +    CLOUDY    41  31  66 SW15G24   29.83S
6HR MIN TEMP:  41; 6HR MAX TEMP:  42;

GREENWOOD *+   PTCLDY    43  28  54 SW9       29.88S
6HR MIN TEMP:  39; 6HR MAX TEMP:  43;

INDIANAPOLIS   CLOUDY    41  25  53 SW13      29.88R
6HR MIN TEMP:  36; 6HR MAX TEMP:  42;

-EAGLE CREEK   CLOUDY    42  25  50 SW9G20    29.86R
6HR MIN TEMP:  39; 6HR MAX TEMP:  44;

KOKOMO +       CLOUDY    41  28  60 SW15G24   29.82R
6HR MIN TEMP:  39; 6HR MAX TEMP:  42;

MARION +       PTCLDY    36  28  72 SW14      29.83R WCI  27
MT COMFORT *+  CLOUDY    37  30  75 S12       29.87R WCI  30
SHELBYVILLE    CLOUDY    38  26  62 S9        29.89S WCI  31
6HR MIN TEMP:  35; 6HR MAX TEMP:  39;

ZIONSVILLE +   CLOUDY    40  27  59 SW15      29.85S WCI  31
6HR MIN TEMP:  38; 6HR MAX TEMP:  41;


$$

INZ033-034-041-042-049-050-058-059-211300-
EAST CENTRAL INDIANA

CITY           SKY/WX    TMP DP  RH WIND       PRES   REMARKS
MUNCIE         CLOUDY    42  25  50 SW16G24   29.84R
6HR MIN TEMP:  41; 6HR MAX TEMP:  43;

RICHMOND +     PTCLDY    37  27  65 SW16      29.90S WCI  28

$$

INZ060-061-067>069-081>083-085>088-211300-
SOUTHWEST INDIANA

CITY           SKY/WX    TMP DP  RH WIND       PRES   REMARKS
EVANSVILLE     MOCLDY    40  29  64 S9        29.97S WCI  34
6HR MIN TEMP:  35; 6HR MAX TEMP:  41;

HUNTINGBURG +  CLOUDY    40  29  64 S13       29.97S WCI  32
6HR MIN TEMP:  38; 6HR MAX TEMP:  41;

WASHINGTON +   CLOUDY    41  26  54 S15       29.92S
6HR MIN TEMP:  38; 6HR MAX TEMP:  42;


$$

INZ062-063-066-070>080-084-089>092-211300-
SOUTH CENTRAL AND SOUTHEAST INDIANA

CITY           SKY/WX    TMP DP  RH WIND       PRES   REMARKS
BEDFORD +      CLOUDY    41  25  52 S10       29.93S
BLOOMINGTON    PTCLDY    42  25  50 SW10      29.90S
6HR MIN TEMP:  41; 6HR MAX TEMP:  44;

MADISON *+     CLOUDY    39  27  60 S8        29.99S WCI  34
NORTH VERNON + CLOUDY    37  25  60 S10       29.95S WCI  30
SEYMOUR +      CLOUDY    43  27  52 SW14      29.94S

$$





USA.gov is the U.S. government's official web portal to all federal, state and local government web resources and services.